This is the latest recevied weather packets stored in our database for station/object N3FAA. If no packets are shown the sender has not sent any weather packets the latest 10 day(s).
| Time | Temp. | Humidity | Pressure | Rain* | Wind** | Luminosity | Snow |
|---|---|---|---|---|---|---|---|
| 1778201400 | 29.44° C | 29% | 1010.9 hPa | 0 mm | - | 271 W/m² | - |
| 1778201095 | 29.44° C | 27% | 1011 hPa | 0 mm | - | 287 W/m² | - |
| 1778200792 | 30° C | 27% | 1011 hPa | 0 mm | - | 303 W/m² | - |
| 1778200489 | 30.56° C | 26% | 1010.6 hPa | 0 mm | - | 308 W/m² | - |
| 1778200186 | 30° C | 25% | 1010.7 hPa | 0 mm | - | 340 W/m² | - |
| 1778199883 | 30.56° C | 24% | 1010.6 hPa | 0 mm | - | 362 W/m² | - |
| 1778199579 | 30.56° C | 22% | 1010.7 hPa | 0 mm | - | 386 W/m² | - |
| 1778199275 | 31.11° C | 23% | 1010.7 hPa | 0 mm | - | 400 W/m² | - |
| 1778198972 | 31.67° C | 20% | 1010.7 hPa | 0 mm | - | 408 W/m² | - |
| 1778198668 | 31.67° C | 19% | 1010.3 hPa | 0 mm | - | 445 W/m² | - |
| 1778198365 | 31.67° C | 21% | 1010.9 hPa | 0 mm | - | 455 W/m² | - |
| 1778198062 | 31.67° C | 20% | 1010.6 hPa | 0 mm | - | 432 W/m² | - |
| 1778197759 | 31.67° C | 20% | 1010.6 hPa | 0 mm | - | 462 W/m² | - |
| 1778197456 | 32.22° C | 20% | 1010.4 hPa | 0 mm | - | 519 W/m² | - |
| 1778197152 | 31.67° C | 19% | 1010.6 hPa | 0 mm | - | 528 W/m² | - |
| 1778196849 | 32.22° C | 19% | 1010.7 hPa | 0 mm | - | 540 W/m² | - |
| 1778196548 | 32.22° C | 17% | 1010.6 hPa | 0 mm | - | 569 W/m² | - |
| 1778196244 | 32.22° C | 18% | 1010.4 hPa | 0 mm | - | 581 W/m² | - |
| 1778195941 | 32.22° C | 16% | 1010.3 hPa | 0 mm | - | 608 W/m² | - |
| 1778195637 | 32.22° C | 16% | 1010.5 hPa | 0 mm | - | 632 W/m² | - |
| 1778195334 | 32.78° C | 16% | 1010.6 hPa | 0 mm | - | 633 W/m² | - |
| 1778195031 | 32.78° C | 16% | 1010.5 hPa | 0 mm | - | 634 W/m² | - |
| 1778194731 | 32.22° C | 21% | 1010.5 hPa | 0 mm | - | 629 W/m² | - |
| 1778194428 | 32.78° C | 19% | 1010.6 hPa | 0 mm | - | 616 W/m² | - |
| 1778194124 | 32.78° C | 16% | 1010.7 hPa | 0 mm | - | 548 W/m² | - |
* Rain latest hour (hover to see other rain measurements)
** Current wind speed in m/s (hover to see current wind gust speed)